DAL8635 KLAX-KSEA

Flight info

Callsign DAL8635
Flight time 2h 6m
Altitude 40000
Route LADYJ4 CSTRO SHIMR LKV HAWKZ8
Aircraft A359/H-SDE2E3GHIJ3J4J5LM1ORWXY/LB1D1

Departure

Time 2026-04-25 04:34
Airport Los Angeles International Airport (KLAX)

Arrival

Time 2026-04-25 06:40
Airport Seattle–Tacoma International Airport (KSEA)
Time Latitude Longitude Altitude Speed Heading
2026-04-25 03:46 33.94178 -118.41090 99 ft 0 kts 83°
2026-04-25 04:21 33.94178 -118.41091 99 ft 1 kts 83°
2026-04-25 04:21 33.94175 -118.41121 98 ft 4 kts 83°
2026-04-25 04:21 33.94171 -118.41153 97 ft 4 kts 83°
2026-04-25 04:21 33.94169 -118.41179 101 ft 4 kts 68°
2026-04-25 04:22 33.94154 -118.41199 99 ft 4 kts 12°
2026-04-25 04:22 33.94129 -118.41200 98 ft 4 kts 353°
2026-04-25 04:22 33.94105 -118.41196 98 ft 1 kts 353°
2026-04-25 04:22 33.94104 -118.41196 98 ft 0 kts 353°
2026-04-25 04:25 33.94105 -118.41196 99 ft 1 kts 353°
2026-04-25 04:26 33.94140 -118.41201 101 ft 9 kts 353°
2026-04-25 04:26 33.94226 -118.41215 101 ft 15 kts 353°
2026-04-25 04:26 33.94338 -118.41232 102 ft 18 kts 353°
2026-04-25 04:26 33.94466 -118.41249 100 ft 19 kts 354°
2026-04-25 04:27 33.94602 -118.41268 101 ft 15 kts 354°
2026-04-25 04:27 33.94686 -118.41282 102 ft 13 kts 352°
2026-04-25 04:27 33.94764 -118.41285 102 ft 7 kts 25°
2026-04-25 04:27 33.94795 -118.41230 104 ft 9 kts 72°
2026-04-25 04:28 33.94798 -118.41145 102 ft 9 kts 88°
2026-04-25 04:28 33.94813 -118.41073 102 ft 10 kts 79°
2026-04-25 04:28 33.94824 -118.40975 103 ft 14 kts 83°
2026-04-25 04:28 33.94836 -118.40850 101 ft 17 kts 83°
2026-04-25 04:29 33.94852 -118.40697 102 ft 20 kts 83°
2026-04-25 04:29 33.94869 -118.40524 102 ft 19 kts 83°
2026-04-25 04:29 33.94888 -118.40357 102 ft 22 kts 82°
2026-04-25 04:29 33.94909 -118.40174 102 ft 22 kts 82°
2026-04-25 04:30 33.94923 -118.40023 99 ft 17 kts 85°
2026-04-25 04:30 33.94938 -118.39944 100 ft 3 kts 59°
2026-04-25 04:30 33.94942 -118.39938 101 ft 0 kts 52°
2026-04-25 04:31 33.94942 -118.39937 101 ft 0 kts 52°
2026-04-25 04:31 33.94947 -118.39933 100 ft 7 kts 40°
2026-04-25 04:31 33.95027 -118.39927 101 ft 8 kts 327°
2026-04-25 04:31 33.95037 -118.39971 103 ft 6 kts 275°
2026-04-25 04:32 33.95036 -118.39996 103 ft 0 kts 266°
2026-04-25 04:33 33.95036 -118.40001 103 ft 9 kts 266°
2026-04-25 04:33 33.94995 -118.40410 103 ft 88 kts 263°
2026-04-25 04:33 33.94891 -118.41422 105 ft 154 kts 263°
2026-04-25 04:34 33.94780 -118.42828 636 ft 170 kts 266°
2026-04-25 04:34 33.94670 -118.44241 1501 ft 175 kts 264°
2026-04-25 04:34 33.94523 -118.45835 1924 ft 206 kts 263°
2026-04-25 04:34 33.94339 -118.47669 2360 ft 234 kts 265°
2026-04-25 04:35 33.94249 -118.49691 3072 ft 248 kts 268°
2026-04-25 04:35 33.94185 -118.51793 3917 ft 254 kts 266°
2026-04-25 04:35 33.94032 -118.53924 4858 ft 257 kts 264°
2026-04-25 04:35 33.93847 -118.56086 5740 ft 262 kts 264°
2026-04-25 04:36 33.93663 -118.58278 6692 ft 265 kts 264°
2026-04-25 04:36 33.93483 -118.60491 7672 ft 266 kts 264°
2026-04-25 04:36 33.93305 -118.62708 8743 ft 266 kts 264°
2026-04-25 04:36 33.93131 -118.64903 9797 ft 267 kts 264°
2026-04-25 04:37 33.92958 -118.67158 10604 ft 278 kts 264°
2026-04-25 04:37 33.92769 -118.69565 11044 ft 300 kts 264°
2026-04-25 04:37 33.92568 -118.72138 11574 ft 316 kts 264°
2026-04-25 04:37 33.92360 -118.74798 12425 ft 321 kts 264°
2026-04-25 04:38 33.92159 -118.77363 13350 ft 322 kts 264°
2026-04-25 04:38 33.91949 -118.80051 14254 ft 324 kts 264°
2026-04-25 04:38 33.91755 -118.82775 15007 ft 328 kts 266°
2026-04-25 04:38 33.91752 -118.85541 15772 ft 332 kts 271°
2026-04-25 04:39 33.91834 -118.88331 16563 ft 336 kts 271°
2026-04-25 04:39 33.91924 -118.91154 17374 ft 339 kts 271°
2026-04-25 04:39 33.92012 -118.94009 18159 ft 343 kts 271°
2026-04-25 04:39 33.92099 -118.96884 18820 ft 346 kts 271°
2026-04-25 04:40 33.92266 -118.99798 19435 ft 352 kts 277°
2026-04-25 04:40 33.92907 -119.02659 20123 ft 358 kts 290°
2026-04-25 04:40 33.94089 -119.05331 20828 ft 364 kts 297°
2026-04-25 04:40 33.95437 -119.07934 21546 ft 368 kts 298°
2026-04-25 04:41 33.96809 -119.10557 22256 ft 372 kts 298°
2026-04-25 04:41 33.98189 -119.13208 22981 ft 375 kts 298°
2026-04-25 04:41 33.99594 -119.15878 23660 ft 380 kts 300°
2026-04-25 04:41 34.01235 -119.18399 24254 ft 388 kts 308°
2026-04-25 04:42 34.03267 -119.20586 24919 ft 395 kts 317°
2026-04-25 04:42 34.05495 -119.22540 25591 ft 397 kts 319°
2026-04-25 04:42 34.07764 -119.24475 26142 ft 401 kts 319°
2026-04-25 04:42 34.10024 -119.26406 26611 ft 407 kts 319°
2026-04-25 04:43 34.12345 -119.28396 27143 ft 411 kts 319°
2026-04-25 04:43 34.14682 -119.30403 27747 ft 414 kts 318°
2026-04-25 04:43 34.17034 -119.32426 28318 ft 417 kts 318°
2026-04-25 04:43 34.19404 -119.34468 28870 ft 420 kts 318°
2026-04-25 04:44 34.21789 -119.36524 29463 ft 422 kts 318°
2026-04-25 04:44 34.24182 -119.38588 30083 ft 424 kts 318°
2026-04-25 04:44 34.26589 -119.40667 30490 ft 427 kts 317°
2026-04-25 04:44 34.29015 -119.42766 30907 ft 430 kts 317°
2026-04-25 04:45 34.31456 -119.44878 31318 ft 433 kts 317°
2026-04-25 04:45 34.33916 -119.47009 31725 ft 436 kts 317°
2026-04-25 04:45 34.36392 -119.49154 32121 ft 439 kts 316°
2026-04-25 04:45 34.38882 -119.51313 32504 ft 442 kts 316°
2026-04-25 04:46 34.41384 -119.53485 32896 ft 444 kts 316°
2026-04-25 04:46 34.43857 -119.55736 33214 ft 445 kts 314°
2026-04-25 04:46 34.46299 -119.58062 33568 ft 448 kts 313°
2026-04-25 04:46 34.48754 -119.60401 33940 ft 449 kts 313°
2026-04-25 04:47 34.51221 -119.62744 34242 ft 451 kts 313°
2026-04-25 04:47 34.53696 -119.65087 34550 ft 452 kts 313°
2026-04-25 04:47 34.56177 -119.67427 34982 ft 450 kts 313°
2026-04-25 04:47 34.58642 -119.69755 35427 ft 448 kts 313°
2026-04-25 04:48 34.61091 -119.72074 35844 ft 446 kts 313°
2026-04-25 04:48 34.63536 -119.74390 36239 ft 445 kts 313°
2026-04-25 04:48 34.65975 -119.76700 36663 ft 443 kts 312°
2026-04-25 04:48 34.68398 -119.79002 37018 ft 442 kts 312°
2026-04-25 04:49 34.70816 -119.81297 37348 ft 441 kts 312°
2026-04-25 04:49 34.73232 -119.83588 37763 ft 440 kts 311°
2026-04-25 04:49 34.75614 -119.85848 38125 ft 440 kts 312°
2026-04-25 04:49 34.78022 -119.88138 38512 ft 439 kts 311°
2026-04-25 04:50 34.80421 -119.90419 38796 ft 438 kts 312°
2026-04-25 04:50 34.82821 -119.92708 38955 ft 439 kts 312°
2026-04-25 04:50 34.85226 -119.95005 39159 ft 440 kts 312°
2026-04-25 04:50 34.87638 -119.97303 39348 ft 441 kts 312°
2026-04-25 04:51 34.90055 -119.99610 39543 ft 441 kts 312°
2026-04-25 04:51 34.92469 -120.01915 39743 ft 442 kts 312°
2026-04-25 04:51 34.94893 -120.04230 39900 ft 444 kts 313°
2026-04-25 04:52 34.99775 -120.08900 39969 ft 446 kts 313°
2026-04-25 04:52 35.04660 -120.13578 39970 ft 446 kts 313°
2026-04-25 04:53 35.09547 -120.18269 39977 ft 447 kts 313°
2026-04-25 04:53 35.14437 -120.22972 39974 ft 447 kts 313°
2026-04-25 04:54 35.19338 -120.27654 39972 ft 449 kts 314°
2026-04-25 04:54 35.23514 -120.31440 39978 ft 449 kts 315°
2026-04-25 04:55 35.28530 -120.36002 40004 ft 450 kts 315°
2026-04-25 04:55 35.34351 -120.41328 39982 ft 449 kts 315°
2026-04-25 04:56 35.38763 -120.44877 39995 ft 467 kts 329°
2026-04-25 04:56 35.41946 -120.45932 39990 ft 484 kts 343°
2026-04-25 04:56 35.45305 -120.46441 39979 ft 488 kts 345°
2026-04-25 04:57 35.52065 -120.47352 39988 ft 488 kts 345°
2026-04-25 04:57 35.58817 -120.48255 39992 ft 488 kts 345°
2026-04-25 04:58 35.65565 -120.49157 39995 ft 488 kts 345°
2026-04-25 04:58 35.72263 -120.50049 39997 ft 488 kts 345°
2026-04-25 04:59 35.79012 -120.50944 39991 ft 488 kts 345°
2026-04-25 04:59 35.85747 -120.51882 39979 ft 486 kts 343°
2026-04-25 05:00 35.92434 -120.53022 39946 ft 485 kts 343°
2026-04-25 05:00 35.99133 -120.54155 39939 ft 486 kts 343°
2026-04-25 05:01 36.05833 -120.55276 39936 ft 486 kts 343°
2026-04-25 05:01 36.12535 -120.56396 39943 ft 486 kts 344°
2026-04-25 05:02 36.19231 -120.57515 39931 ft 486 kts 343°
2026-04-25 05:02 36.25929 -120.58639 39925 ft 486 kts 343°
2026-04-25 05:03 36.32623 -120.59761 39919 ft 486 kts 344°
2026-04-25 05:03 36.39319 -120.60884 39911 ft 485 kts 344°
2026-04-25 05:04 36.46017 -120.62010 39912 ft 486 kts 344°
2026-04-25 05:04 36.52712 -120.63138 39921 ft 485 kts 344°
2026-04-25 05:05 36.59409 -120.64270 39922 ft 485 kts 344°
2026-04-25 05:05 36.66096 -120.65401 39922 ft 485 kts 344°
2026-04-25 05:06 36.72793 -120.66536 39930 ft 485 kts 343°
2026-04-25 05:06 36.79449 -120.67666 39915 ft 486 kts 343°
2026-04-25 05:07 36.86154 -120.68806 39908 ft 486 kts 343°
2026-04-25 05:07 36.92864 -120.69949 39913 ft 486 kts 344°
2026-04-25 05:08 36.99563 -120.71091 39911 ft 486 kts 344°
2026-04-25 05:08 37.06267 -120.72237 39901 ft 486 kts 344°
2026-04-25 05:09 37.12974 -120.73386 39918 ft 486 kts 344°
2026-04-25 05:09 37.19670 -120.74535 39912 ft 486 kts 344°
2026-04-25 05:10 37.26376 -120.75687 39911 ft 486 kts 344°
2026-04-25 05:10 37.33073 -120.76841 39911 ft 486 kts 345°
2026-04-25 05:11 37.39781 -120.77998 39903 ft 487 kts 345°
2026-04-25 05:11 37.46495 -120.79157 39900 ft 487 kts 345°
2026-04-25 05:12 37.56571 -120.80903 39897 ft 487 kts 345°
2026-04-25 05:12 37.63285 -120.82068 39900 ft 488 kts 345°
2026-04-25 05:13 37.70010 -120.83237 39928 ft 488 kts 345°
2026-04-25 05:13 37.76690 -120.84402 39907 ft 488 kts 346°
2026-04-25 05:14 37.83418 -120.85576 39915 ft 488 kts 346°
2026-04-25 05:15 37.93552 -120.87349 39922 ft 488 kts 346°
2026-04-25 05:15 38.00238 -120.88521 39939 ft 488 kts 346°
2026-04-25 05:16 38.06849 -120.89682 39938 ft 488 kts 346°
2026-04-25 05:16 38.13580 -120.90867 39946 ft 488 kts 346°
2026-04-25 05:17 38.20311 -120.92053 39953 ft 488 kts 346°
2026-04-25 05:17 38.27039 -120.93241 39955 ft 488 kts 346°
2026-04-25 05:18 38.33764 -120.94432 39939 ft 488 kts 347°
2026-04-25 05:18 38.40481 -120.95622 39935 ft 488 kts 347°
2026-04-25 05:19 38.47207 -120.96817 39932 ft 488 kts 347°
2026-04-25 05:19 38.53937 -120.98015 39933 ft 488 kts 347°
2026-04-25 05:20 38.60668 -120.99215 39929 ft 488 kts 347°
2026-04-25 05:20 38.67392 -121.00417 39939 ft 488 kts 347°
2026-04-25 05:21 38.74122 -121.01621 39948 ft 488 kts 347°
2026-04-25 05:21 38.80800 -121.02819 39953 ft 488 kts 347°
2026-04-25 05:22 38.87524 -121.04027 39967 ft 488 kts 347°
2026-04-25 05:22 38.94239 -121.05236 39962 ft 487 kts 347°
2026-04-25 05:23 39.00951 -121.06447 39959 ft 487 kts 347°
2026-04-25 05:23 39.07661 -121.07659 39962 ft 487 kts 347°
2026-04-25 05:24 39.14365 -121.08872 39960 ft 486 kts 347°
2026-04-25 05:24 39.21070 -121.10089 39962 ft 486 kts 347°
2026-04-25 05:25 39.27764 -121.11305 39960 ft 485 kts 347°
2026-04-25 05:25 39.34452 -121.12524 39952 ft 485 kts 347°
2026-04-25 05:26 39.41137 -121.13743 39939 ft 485 kts 347°
2026-04-25 05:26 39.47817 -121.14964 39932 ft 484 kts 347°
2026-04-25 05:27 39.54488 -121.16186 39931 ft 484 kts 347°
2026-04-25 05:27 39.61159 -121.17409 39940 ft 484 kts 347°
2026-04-25 05:28 39.67816 -121.18633 39937 ft 483 kts 347°
2026-04-25 05:28 39.74470 -121.19859 39939 ft 483 kts 347°
2026-04-25 05:29 39.81119 -121.21088 39935 ft 483 kts 347°
2026-04-25 05:29 39.87767 -121.22316 39940 ft 482 kts 347°
2026-04-25 05:30 39.94365 -121.23538 39938 ft 482 kts 347°
2026-04-25 05:30 40.01003 -121.24771 39942 ft 482 kts 347°
2026-04-25 05:31 40.07640 -121.26009 39945 ft 482 kts 347°
2026-04-25 05:31 40.14285 -121.27247 39955 ft 482 kts 347°
2026-04-25 05:32 40.20925 -121.28486 39941 ft 482 kts 347°
2026-04-25 05:32 40.27560 -121.29728 39937 ft 482 kts 347°
2026-04-25 05:33 40.34197 -121.30972 39933 ft 482 kts 347°
2026-04-25 05:33 40.40832 -121.32219 39927 ft 482 kts 347°
2026-04-25 05:34 40.47470 -121.33468 39931 ft 482 kts 347°
2026-04-25 05:34 40.54104 -121.34719 39926 ft 481 kts 347°
2026-04-25 05:35 40.60732 -121.35972 39915 ft 481 kts 347°
2026-04-25 05:35 40.67355 -121.37226 39914 ft 480 kts 347°
2026-04-25 05:36 40.73971 -121.38482 39908 ft 480 kts 347°
2026-04-25 05:36 40.80575 -121.39738 39908 ft 480 kts 347°
2026-04-25 05:37 40.87188 -121.40999 39911 ft 480 kts 347°
2026-04-25 05:37 40.93748 -121.42251 39900 ft 480 kts 347°
2026-04-25 05:38 41.00354 -121.43514 39912 ft 480 kts 347°
2026-04-25 05:38 41.06953 -121.44780 39911 ft 479 kts 347°
2026-04-25 05:39 41.13546 -121.46046 39915 ft 478 kts 347°
2026-04-25 05:39 41.20130 -121.47313 39922 ft 478 kts 347°
2026-04-25 05:40 41.26718 -121.48584 39932 ft 478 kts 347°
2026-04-25 05:40 41.33301 -121.49856 39936 ft 478 kts 347°
2026-04-25 05:41 41.39881 -121.51131 39943 ft 478 kts 347°
2026-04-25 05:41 41.46461 -121.52408 39940 ft 478 kts 347°
2026-04-25 05:42 41.53052 -121.53690 39938 ft 479 kts 347°
2026-04-25 05:42 41.59642 -121.54973 39941 ft 479 kts 347°
2026-04-25 05:43 41.66238 -121.56262 39928 ft 479 kts 348°
2026-04-25 05:43 41.72829 -121.57551 39925 ft 479 kts 348°
2026-04-25 05:44 41.79424 -121.58844 39931 ft 479 kts 348°
2026-04-25 05:44 41.84900 -121.59919 39924 ft 477 kts 348°
2026-04-25 05:45 41.91461 -121.61210 39928 ft 477 kts 348°
2026-04-25 05:45 41.98028 -121.62506 39939 ft 477 kts 348°
2026-04-25 05:46 42.04586 -121.63802 39939 ft 476 kts 348°
2026-04-25 05:46 42.11137 -121.65099 39945 ft 476 kts 348°
2026-04-25 05:47 42.17681 -121.66397 39946 ft 476 kts 348°
2026-04-25 05:47 42.24226 -121.67700 39912 ft 476 kts 348°
2026-04-25 05:48 42.30771 -121.69004 39914 ft 476 kts 348°
2026-04-25 05:48 42.37276 -121.70304 39914 ft 475 kts 348°
2026-04-25 05:49 42.43813 -121.71612 39916 ft 475 kts 348°
2026-04-25 05:49 42.50353 -121.72923 39913 ft 475 kts 348°
2026-04-25 05:50 42.56886 -121.74236 39926 ft 475 kts 348°
2026-04-25 05:50 42.63420 -121.75552 39921 ft 474 kts 348°
2026-04-25 05:51 42.69946 -121.76869 39924 ft 474 kts 348°
2026-04-25 05:51 42.76472 -121.78190 39938 ft 474 kts 348°
2026-04-25 05:52 42.82978 -121.79508 39936 ft 472 kts 348°
2026-04-25 05:52 42.89474 -121.80827 39941 ft 472 kts 348°
2026-04-25 05:53 42.95966 -121.82149 39952 ft 472 kts 348°
2026-04-25 05:53 43.02454 -121.83473 39948 ft 471 kts 348°
2026-04-25 05:54 43.08930 -121.84797 39958 ft 471 kts 348°
2026-04-25 05:54 43.18654 -121.86790 39965 ft 471 kts 348°
2026-04-25 05:55 43.25085 -121.88112 39970 ft 470 kts 348°
2026-04-25 05:55 43.31558 -121.89445 39973 ft 470 kts 348°
2026-04-25 05:56 43.38024 -121.90782 39978 ft 470 kts 348°
2026-04-25 05:56 43.44491 -121.92118 39978 ft 470 kts 348°
2026-04-25 05:57 43.50962 -121.93459 39989 ft 470 kts 348°
2026-04-25 05:57 43.57425 -121.94801 39992 ft 469 kts 348°
2026-04-25 05:58 43.63877 -121.96144 39990 ft 469 kts 348°
2026-04-25 05:58 43.70321 -121.97489 39999 ft 469 kts 348°
2026-04-25 05:59 43.76765 -121.98837 40008 ft 468 kts 348°
2026-04-25 05:59 43.83204 -122.00186 39996 ft 468 kts 348°
2026-04-25 06:00 43.89652 -122.01540 40006 ft 468 kts 348°
2026-04-25 06:00 43.96097 -122.02897 40002 ft 468 kts 349°
2026-04-25 06:01 44.02547 -122.04258 40013 ft 469 kts 349°
2026-04-25 06:01 44.09005 -122.05623 40012 ft 470 kts 349°
2026-04-25 06:02 44.15472 -122.06993 40011 ft 470 kts 349°
2026-04-25 06:02 44.21938 -122.08366 40027 ft 471 kts 349°
2026-04-25 06:03 44.28372 -122.09735 40023 ft 471 kts 349°
2026-04-25 06:03 44.34851 -122.11117 40031 ft 471 kts 349°
2026-04-25 06:04 44.41336 -122.12503 40026 ft 472 kts 349°
2026-04-25 06:04 44.47875 -122.13904 40030 ft 472 kts 349°
2026-04-25 06:05 44.54322 -122.15289 40037 ft 472 kts 349°
2026-04-25 06:05 44.60806 -122.16685 40038 ft 471 kts 349°
2026-04-25 06:06 44.67282 -122.18082 40035 ft 471 kts 349°
2026-04-25 06:06 44.73760 -122.19482 40046 ft 471 kts 349°
2026-04-25 06:07 44.80226 -122.20883 40044 ft 470 kts 349°
2026-04-25 06:07 44.86672 -122.22283 40044 ft 468 kts 349°
2026-04-25 06:08 44.93112 -122.23685 40035 ft 468 kts 349°
2026-04-25 06:08 44.99559 -122.25091 40038 ft 468 kts 349°
2026-04-25 06:09 45.05994 -122.26498 40041 ft 468 kts 349°
2026-04-25 06:09 45.12443 -122.27912 40023 ft 469 kts 349°
2026-04-25 06:10 45.18901 -122.29331 40016 ft 469 kts 350°
2026-04-25 06:10 45.25359 -122.30752 39886 ft 470 kts 349°
2026-04-25 06:11 45.28585 -122.31464 39654 ft 469 kts 349°
2026-04-25 06:11 45.31811 -122.32176 39429 ft 468 kts 349°
2026-04-25 06:11 45.35025 -122.32886 39204 ft 467 kts 349°
2026-04-25 06:11 45.38234 -122.33596 38977 ft 467 kts 349°
2026-04-25 06:12 45.41441 -122.34307 38777 ft 466 kts 350°
2026-04-25 06:12 45.44644 -122.35017 38520 ft 465 kts 350°
2026-04-25 06:12 45.47834 -122.35726 38240 ft 464 kts 350°
2026-04-25 06:12 45.51027 -122.36435 37970 ft 463 kts 350°
2026-04-25 06:13 45.54201 -122.37142 37698 ft 462 kts 349°
2026-04-25 06:13 45.57377 -122.37849 37433 ft 461 kts 349°
2026-04-25 06:13 45.60543 -122.38556 37171 ft 460 kts 349°
2026-04-25 06:14 45.66836 -122.39962 36521 ft 454 kts 350°
2026-04-25 06:14 45.69904 -122.40649 35914 ft 451 kts 350°
2026-04-25 06:14 45.72998 -122.41342 35222 ft 449 kts 350°
2026-04-25 06:14 45.76084 -122.42035 34499 ft 449 kts 350°
2026-04-25 06:15 45.79164 -122.42727 33636 ft 448 kts 350°
2026-04-25 06:15 45.82240 -122.43419 32783 ft 446 kts 350°
2026-04-25 06:15 45.85296 -122.44107 31957 ft 443 kts 351°
2026-04-25 06:15 45.88318 -122.44788 31334 ft 435 kts 351°
2026-04-25 06:16 45.91283 -122.45457 30781 ft 429 kts 351°
2026-04-25 06:16 45.94211 -122.46118 30182 ft 422 kts 351°
2026-04-25 06:16 45.97083 -122.46767 29550 ft 415 kts 351°
2026-04-25 06:16 45.99913 -122.47408 28949 ft 407 kts 351°
2026-04-25 06:17 46.02685 -122.48035 28398 ft 399 kts 351°
2026-04-25 06:17 46.05408 -122.48653 27859 ft 392 kts 351°
2026-04-25 06:17 46.08069 -122.49260 27493 ft 382 kts 351°
2026-04-25 06:17 46.10656 -122.49851 27215 ft 371 kts 351°
2026-04-25 06:18 46.13169 -122.50427 26939 ft 360 kts 351°
2026-04-25 06:18 46.15603 -122.50982 26725 ft 349 kts 351°
2026-04-25 06:18 46.17969 -122.51519 26429 ft 339 kts 351°
2026-04-25 06:18 46.20234 -122.52031 25986 ft 322 kts 351°
2026-04-25 06:19 46.22417 -122.52528 25263 ft 314 kts 351°
2026-04-25 06:19 46.24563 -122.53018 24446 ft 311 kts 352°
2026-04-25 06:19 46.26687 -122.53503 23627 ft 307 kts 352°
2026-04-25 06:19 46.28762 -122.53978 23008 ft 299 kts 352°
2026-04-25 06:20 46.30833 -122.54451 22556 ft 301 kts 352°
2026-04-25 06:20 46.32901 -122.54925 22093 ft 300 kts 351°
2026-04-25 06:20 46.34953 -122.55395 21675 ft 298 kts 351°
2026-04-25 06:20 46.36992 -122.55863 21194 ft 297 kts 351°
2026-04-25 06:21 46.39031 -122.56331 20732 ft 296 kts 351°
2026-04-25 06:21 46.41060 -122.56798 20274 ft 295 kts 351°
2026-04-25 06:21 46.43087 -122.57265 19811 ft 295 kts 351°
2026-04-25 06:21 46.45111 -122.57730 19344 ft 294 kts 351°
2026-04-25 06:22 46.47133 -122.58195 18878 ft 294 kts 351°
2026-04-25 06:22 46.49151 -122.58661 18397 ft 294 kts 351°
2026-04-25 06:22 46.51090 -122.59109 17891 ft 294 kts 351°
2026-04-25 06:22 46.53104 -122.59574 17364 ft 294 kts 351°
2026-04-25 06:23 46.55118 -122.60039 16892 ft 292 kts 351°
2026-04-25 06:23 46.57098 -122.60497 16422 ft 291 kts 351°
2026-04-25 06:23 46.59092 -122.60959 15959 ft 289 kts 351°
2026-04-25 06:23 46.61073 -122.61418 15499 ft 288 kts 351°
2026-04-25 06:24 46.63052 -122.61876 15044 ft 287 kts 352°
2026-04-25 06:24 46.65024 -122.62334 14585 ft 286 kts 352°
2026-04-25 06:24 46.66988 -122.62789 14137 ft 285 kts 352°
2026-04-25 06:24 46.68944 -122.63243 13679 ft 284 kts 352°
2026-04-25 06:25 46.70894 -122.63697 13203 ft 282 kts 352°
2026-04-25 06:25 46.72820 -122.64144 12792 ft 279 kts 352°
2026-04-25 06:25 46.74730 -122.64589 12371 ft 277 kts 352°
2026-04-25 06:25 46.76632 -122.65033 11948 ft 277 kts 352°
2026-04-25 06:26 46.78526 -122.65474 11739 ft 277 kts 353°
2026-04-25 06:26 46.80430 -122.65919 11593 ft 277 kts 353°
2026-04-25 06:26 46.82342 -122.66303 11475 ft 277 kts 357°
2026-04-25 06:26 46.84244 -122.66036 11349 ft 275 kts 17°
2026-04-25 06:27 46.85930 -122.64745 11215 ft 275 kts 38°
2026-04-25 06:27 46.87366 -122.62893 11023 ft 276 kts 42°
2026-04-25 06:27 46.88755 -122.60958 10704 ft 275 kts 43°
2026-04-25 06:27 46.90122 -122.59049 10395 ft 275 kts 43°
2026-04-25 06:28 46.91504 -122.57123 10123 ft 274 kts 44°
2026-04-25 06:28 46.92840 -122.55126 10006 ft 275 kts 46°
2026-04-25 06:28 46.94154 -122.53104 9841 ft 274 kts 46°
2026-04-25 06:28 46.95442 -122.51132 9674 ft 263 kts 46°
2026-04-25 06:29 46.96694 -122.49225 9351 ft 257 kts 45°
2026-04-25 06:29 46.97946 -122.47381 9026 ft 252 kts 41°
2026-04-25 06:29 46.99353 -122.45913 8838 ft 248 kts 32°
2026-04-25 06:29 47.00841 -122.44634 8425 ft 248 kts 30°
2026-04-25 06:30 47.02328 -122.43392 8086 ft 245 kts 30°
2026-04-25 06:30 47.03796 -122.42161 7797 ft 242 kts 31°
2026-04-25 06:30 47.05257 -122.40932 7488 ft 242 kts 31°
2026-04-25 06:30 47.06714 -122.39703 7187 ft 241 kts 31°
2026-04-25 06:31 47.08160 -122.38481 6872 ft 240 kts 31°
2026-04-25 06:31 47.09602 -122.37260 6572 ft 239 kts 31°
2026-04-25 06:31 47.11038 -122.36044 6231 ft 238 kts 31°
2026-04-25 06:31 47.12525 -122.34996 5941 ft 237 kts 19°
2026-04-25 06:32 47.14105 -122.34479 5749 ft 226 kts 11°
2026-04-25 06:32 47.15602 -122.34142 5511 ft 210 kts 10°
2026-04-25 06:32 47.16993 -122.33839 5334 ft 194 kts 10°
2026-04-25 06:32 47.18264 -122.33560 5187 ft 174 kts 11°
2026-04-25 06:33 47.19394 -122.33310 4881 ft 162 kts 11°
2026-04-25 06:33 47.20461 -122.33069 4665 ft 148 kts 11°
2026-04-25 06:33 47.21447 -122.32846 4398 ft 140 kts 11°
2026-04-25 06:33 47.22398 -122.32630 4074 ft 137 kts 11°
2026-04-25 06:34 47.23323 -122.32352 3749 ft 135 kts 15°
2026-04-25 06:34 47.24236 -122.32167 3475 ft 130 kts
2026-04-25 06:34 47.25107 -122.32107 3324 ft 120 kts
2026-04-25 06:34 47.25937 -122.32040 3300 ft 120 kts
2026-04-25 06:35 47.26777 -122.31990 3281 ft 121 kts
2026-04-25 06:35 47.27622 -122.31973 3238 ft 122 kts
2026-04-25 06:35 47.28468 -122.31978 3205 ft 122 kts
2026-04-25 06:35 47.29313 -122.31968 3146 ft 121 kts
2026-04-25 06:36 47.29870 -122.31953 3113 ft 121 kts
2026-04-25 06:36 47.30712 -122.31930 3053 ft 123 kts
2026-04-25 06:36 47.31580 -122.31907 2893 ft 126 kts
2026-04-25 06:36 47.32457 -122.31899 2719 ft 126 kts
2026-04-25 06:37 47.33331 -122.31894 2550 ft 125 kts
2026-04-25 06:37 47.34203 -122.31887 2383 ft 125 kts
2026-04-25 06:37 47.35075 -122.31879 2201 ft 125 kts
2026-04-25 06:37 47.35949 -122.31873 2037 ft 126 kts
2026-04-25 06:38 47.36828 -122.31866 1854 ft 126 kts
2026-04-25 06:38 47.37707 -122.31858 1685 ft 127 kts
2026-04-25 06:38 47.38589 -122.31851 1504 ft 127 kts
2026-04-25 06:38 47.39475 -122.31844 1328 ft 128 kts
2026-04-25 06:39 47.40363 -122.31835 1114 ft 128 kts
2026-04-25 06:39 47.41260 -122.31819 940 ft 129 kts
2026-04-25 06:39 47.42167 -122.31818 748 ft 131 kts
2026-04-25 06:39 47.43082 -122.31825 618 ft 131 kts
2026-04-25 06:40 47.43998 -122.31818 420 ft 131 kts
2026-04-25 06:40 47.44885 -122.31805 395 ft 119 kts
2026-04-25 06:40 47.45497 -122.31794 408 ft 50 kts
2026-04-25 06:40 47.45773 -122.31769 411 ft 33 kts 14°
2026-04-25 06:41 47.45939 -122.31639 419 ft 21 kts 44°
2026-04-25 06:41 47.46010 -122.31463 418 ft 19 kts 71°
2026-04-25 06:41 47.46004 -122.31308 422 ft 10 kts 98°
2026-04-25 06:41 47.46010 -122.31216 424 ft 9 kts 82°
2026-04-25 06:42 47.46016 -122.31121 433 ft 10 kts 88°
2026-04-25 06:42 47.46014 -122.30998 438 ft 13 kts 91°
2026-04-25 06:42 47.46010 -122.30857 427 ft 15 kts 93°
2026-04-25 06:42 47.46006 -122.30703 432 ft 11 kts 92°
2026-04-25 06:43 47.45976 -122.30623 446 ft 9 kts 155°
2026-04-25 06:43 47.45907 -122.30619 438 ft 13 kts 181°
2026-04-25 06:43 47.45804 -122.30619 436 ft 17 kts 180°
2026-04-25 06:43 47.45678 -122.30622 427 ft 20 kts 181°
2026-04-25 06:44 47.45565 -122.30625 430 ft 12 kts 181°
2026-04-25 06:44 47.45461 -122.30625 432 ft 18 kts 180°
2026-04-25 06:44 47.45326 -122.30624 424 ft 20 kts 179°
2026-04-25 06:44 47.45166 -122.30624 413 ft 18 kts 180°
2026-04-25 06:45 47.45079 -122.30625 413 ft 15 kts 180°
2026-04-25 06:45 47.44993 -122.30626 409 ft 11 kts 180°
2026-04-25 06:45 47.44892 -122.30627 409 ft 18 kts 180°
2026-04-25 06:45 47.44750 -122.30629 409 ft 23 kts 180°
2026-04-25 06:46 47.44584 -122.30630 404 ft 24 kts 181°
2026-04-25 06:46 47.44420 -122.30635 400 ft 23 kts 181°
2026-04-25 06:46 47.44299 -122.30636 397 ft 14 kts 179°
2026-04-25 06:46 47.44183 -122.30635 391 ft 19 kts 180°
2026-04-25 06:47 47.44061 -122.30636 391 ft 19 kts 180°
2026-04-25 06:47 47.43945 -122.30637 388 ft 15 kts 181°
2026-04-25 06:47 47.43847 -122.30640 385 ft 15 kts 181°
2026-04-25 06:47 47.43776 -122.30638 383 ft 0 kts 171°
2026-04-25 06:48 47.43773 -122.30636 383 ft 2 kts 163°
2026-04-25 06:48 47.43738 -122.30607 383 ft 8 kts 147°
2026-04-25 06:48 47.43719 -122.30548 385 ft 5 kts 91°
2026-04-25 06:48 47.43722 -122.30468 386 ft 11 kts 87°
2026-04-25 06:49 47.43724 -122.30378 387 ft 2 kts 88°
2026-04-25 06:49 47.43724 -122.30372 387 ft 0 kts 86°
2026-04-25 06:49 47.43730 -122.30362 387 ft 5 kts 52°
2026-04-25 06:49 47.43745 -122.30352 388 ft 1 kts 23°
2026-04-25 06:50 47.43757 -122.30347 389 ft 6 kts 19°
2026-04-25 06:50 47.43790 -122.30331 391 ft 2 kts 18°
2026-04-25 06:50 47.43801 -122.30325 391 ft 0 kts 17°